SCP
0 0 0 0 0 0 0 0 0 0 0 0 0 0 0 0 0 0 0 0 0 0 0 0 0 0 0 0 0 0 0 0 0 0 0 0 0 0 0 0 0 -0 0 0 0 0 0 0 0 -0 0 0 0 0
0 0 0 0 0 0 0 0 0 0 0 0 0 0 0 0 0 0 0 0 0 0 0 0 0 0 0 0 0 0 0 0 0 0 0 0 0 0 0 0 0 0 0 0 0 0 0 0 0 0 0 0 0 0
0 0 0 0 0 0 0 0 0 0 0 0 0 0 0 0 0 0 0 0 0 0 0 0 0 0 0 0 0 0 0 0 0 0 0 0 0 0 0 0 0 0 0 0 0 0 0 0 0 0 0 0 0 0
0 0 0 0 0 0 0 0 0 0 0 0 0 0 0 0 0 0 0 0 0 0 0 0 -0 -0 0 0 0 0 0 0 0 0 0 0 0 0 0 0 0 0 0 0 0 0 0 0 0 0 0 0 0 0
0 0 0 0 0 0 0 0 0 0 0 0 0 0 0 0 0 0 0 0 0 0 0 0 0 0 0 0 0 0 0 0 0 0 0 0 0 0 0 0 0 0 0 0 0 0 0 0 0 0 0 0 0 0
0 0 0 0 0 0 0 0 0 0 0 0 0 0 0 0 0 0 0 0 0 0 0 0 0 0 0 0 0 0 0 0 0 0 0 0 0 0 0 0 0 0 0 0 0 0 0 0 0 0 0 0 0 0
0 0 0 0 0 0 0 0 0 0 0 0 0 0 0 0 0 0 0 0 0 0 0 0 0 0 0 0 0 0 0 0 0 0 0 0 0 0 0 0 0 0 0 0 0 0 0 0 0 0 -0 -0 -0 0
0 0 0 0 0 0 0 0 0 0 0 0 0 0 0 0 0 0 0 0 0 0 0 0 0 0 0 0 0 0 0 0 0 0 0 0 0 0 0 0 0 0 0 0 0 0 0 0 0 0 -0 0 0 0
0 0 0 0 0 0 0 0 0 0 0 0 0 0 0 0 0 0 0 0 0 0 0 0 0 0 0 0 0 0 0 0 0 0 0 0 0 0 0 0 0 0 0 0 0 0 0 0 0 0 0 0 0 0
0 0 0 0 0 0 0 0 0 0 0 0 0 0 0 0 0 0 0 0 0 0 0 0 0 0 0 0 0 0 0 0 0 0 0 0 0 0 0 0 0 0 0 0 0 0 0 0 0 0 0 0 0 0
0 0 0 0 0 0 0 0 0 0 0 0 0 0 0 0 0 0 0 0 0 0 0 0 0 0 0 0 0 0 0 0 0 0 0 0 0 0 0 0 0 0 0 0 0 -0 -0 -0 0 0 0 0 0 0
0 0 0 0 0 0 0 0 0 0 0 0 0 0 0 0 0 0 0 0 0 0 0 0 0 0 0 0 0 0 0 -0 0 0 0 0 0 0 0 0 0 0 0 0 0 -0 -0 -0 0 0 0 0 0 0
0 0 0 0 0 0 0 0 0 0 0 0 0 0 0 0 0 0 0 0 0 0 0 0 0 0 0 0 0 0 0 0 0 0 0 0 0 0 0 0 0 0 0 0 0 -0 -0 -0 0 0 0 0 0 0
0 0 0 0 0 0 0 0 0 0 0 0 0 0 0 0 0 0 0 0 0 0 0 0 0 0 0 0 0 0 0 0 0 0 0 0 0 0 0 0 0 0 0 0 0 -0 -0 -0 0 0 0 0 0 0
0 0 0 0 0 0 0 0 0 0 0 0 0 0 0 0 0 0 0 0 0 0 0 0 0 0 0 0 0 -0 0 0 0 -0 0 0 -0 0 0 0 0 0 0 -0 -0 -0 -0 0 0 0 0 0 0 0
0 0 0 0 0 0 0 0 0 0 0 0 0 0 0 0 0 0 0 0 0 0 0 0 0 0 0 -0 0 0 0 0 0 0 0 0 0 0 0 0 0 0 0 0 -0 0 0 0 0 0 0 0 0 0
0 0 0 0 0 0 0 0 0 0 0 0 0 0 0 0 0 0 0 0 0 0 0 0 0 0 0 0 0 0 0 0 0 0 0 -0 0 0 -0 0 0 0 0 0 0 0 0 0 0 0 0 0 0 0
0 0 -0 -0 0 0 0 0 0 0 0 0 0 0 0 0 0 0 0 0 0 0 -0 -0 -0 0 0 0 0 0 0 0 0 -0 -0 -0 -0 -0 -0 0 0 0 0 0 0 0 0 0 0 0 0 0 0 0
0 0 -0 -0 0 0 0 0 0 0 0 0 0 0 0 0 0 0 0 0 0 0 0 -0 0 0 0 0 0 0 0 0 -0 -0 -0 -0 -0 0 0 0 0 0 0 0 0 0 0 0 0 0 0 0 0 0
-0 -0 -0 0 0 0 0 0 0 0 0 0 0 0 0 0 0 0 0 -0 -0 0 0 0 0 0 0 0 0 0 0 -0 -0 -0 -0 -0 0 0 0 0 0 0 0 0 0 0 0 0 0 0 0 0 0 0
-0 0 0 0 0 0 0 0 0 0 0 0 0 0 0 0 0 -0 0 0 0 -0 -0 0 0 0 0 -0 0 0 0 -0 -0 -0 -0 0 0 0 0 0 0 0 0 0 0 0 0 0 0 0 0 0 0 0
0 0 0 0 0 0 0 0 0 0 0 0 0 0 0 0 -0 -0 -0 -0 0 0 0 0 0 0 -0 -0 0 -0 -0 -0 -0 0 -0 0 0 -0 -0 -0 -0 0 0 0 0 0 0 0 0 0 0 0 0 0
0 0 0 0 0 0 0 0 0 0 0 -0 0 -0 -0 -0 -0 -0 -0 0 -0 0 0 0 0 -0 0 0 0 0 -0 -0 -0 0 0 0 0 0 0 -0 0 0 0 0 0 0 0 0 0 0 0 0 0 0
0 0 0 0 0 0 0 0 0 0 0 -0 0 -0 -0 -0 -0 -0 0 0 0 0 0 0 0 -0 0 0 0 0 0 0 0 0 0 0 0 0 -0 -0 0 0 0 -0 -0 0 0 0 0 0 0 0 0 0
0 0 0 0 0 0 0 -0 -0 0 0 -0 0 -0 -0 -0 0 0 -0 0 0 0 0 0 0 0 0 0 0 0 0 0 0 0 0 0 0 0 0 0 0 0 0 -0 -0 0 0 0 0 0 0 -0 0 -0
0 0 0 -0 0 0 -0 0 0 -0 0 -0 -0 -0 0 0 0 0 -0 0 0 0 0 -0 0 0 0 0 0 0 0 0 0 0 0 0 0 0 0 -0 -0 0 0 0 0 0 -0 -0 -0 -0 -0 -0 -0 -0
0 0 0 -0 -0 0 0 0 -0 -0 -0 0 0 0 0 0 0 0 -0 0 0 0 0 0 0 0 0 0 0 0 0 0 0 0 0 0 0 0 0 -0 -0 0 -0 0 -0 -0 -0 0 0 0 0 0 0 -0
0 0 0 0 0 0 0 -0 -0 -0 0 -0 0 0 0 0 0 -0 0 0 0 0 0 0 0 0 0 0 0 0 0 0 0 0 0 0 0 0 0 0 0 0 -0 -0 -0 -0 0 0 0 0 0 0 -0 0
0 0 0 0 0 0 -0 -0 0 -0 -0 -0 0 0 0 0 0 0 0 0 0 0 0 0 0 0 0 0 0 0 0 0 0 0 0 0 0 0 0 0 -0 -0 -0 -0 -0 -0 -0 0 0 0 0 0 0 0
0 -0 0 0 0 0 0 -0 -0 -0 -0 0 0 0 0 0 0 0 0 0 0 0 0 0 0 0 0 0 0 0 0 0 0 -0 -0 -0 -0 0 -0 -0 -0 -0 0 0 0 0 -0 0 0 0 0 0 0 -0
0 -0 0 0 0 0 -0 -0 -0 -0 0 0 0 0 0 0 0 0 0 0 0 0 0 0 0 0 0 0 0 0 0 0 0 0 0 -0 -0 -0 -0 -0 0 0 0 0 0 -0 0 0 -0 -0 -0 -0 -0 -0
-0 0 0 0 0 0 -0 0 0 0 0 0 0 0 0 0 0 0 0 0 0 0 0 0 0 0 0 0 0 0 0 0 0 0 -0 0 -0 -0 -0 0 0 -0 -0 -0 0 0 -0 -0 -0 -0 -0 -0 -0 -0
0 0 0 0 0 0 0 0 0 0 0 0 0 0 0 0 0 0 0 0 0 0 0 0 0 0 0 0 0 0 0 0 -0 -0 -0 -0 -0 -0 0 0 0 -0 -0 0 0 0 0 -0 -0 -0 -0 -0 -0 0
Wind_Speed_500mb
34 35 33 30 33 31 27 26 26 25 25 27 30 31 31 27 22 18 15 21 17 12 45 29 13 16 13 6 5 19 20 6 8 8 1 5 3 5 5 4 3 7 2 5 2 5 4 30 11 14 13 26 26 43
41 36 33 30 32 33 28 28 28 27 26 27 30 30 32 32 29 22 14 22 28 25 36 62 68 68 70 66 41 13 8 3 7 4 2 3 5 6 4 6 1 2 9 7 9 8 6 15 4 14 1 26 30 38
46 41 42 35 37 33 32 30 30 29 28 28 31 29 31 34 34 31 27 28 33 20 39 14 2 2 4 17 15 12 10 12 12 11 8 5 8 5 5 8 2 4 7 5 7 9 13 34 12 15 10 27 30 29
53 47 46 38 36 34 33 32 31 29 29 29 30 30 31 33 34 34 31 30 19 13 11 14 6 11 48 51 46 62 69 41 24 11 4 5 5 10 6 5 5 8 11 6 9 16 27 12 19 17 22 30 30 31
59 54 51 39 36 39 39 36 33 32 31 31 31 32 33 33 31 29 26 11 3 9 9 36 67 6 27 26 25 34 40 47 49 10 7 8 11 3 4 1 9 18 13 7 11 17 17 26 27 34 44 28 31 26
66 61 55 50 42 40 41 40 37 34 33 32 34 36 34 34 30 23 5 2 2 13 9 8 32 32 19 20 22 18 21 45 40 20 15 19 37 17 7 7 14 13 6 19 14 29 36 46 50 54 30 31 28 20
71 69 64 57 52 45 43 42 41 40 38 34 36 36 35 34 28 13 10 4 10 16 8 13 18 12 34 20 29 20 37 16 34 25 21 32 25 32 8 12 13 31 50 70 62 45 56 68 49 55 53 49 35 22
69 69 69 63 58 55 51 48 45 43 42 37 35 32 33 31 30 11 2 4 15 12 9 4 10 22 27 17 17 24 16 17 17 20 11 12 13 15 16 17 53 62 65 71 73 71 68 51 53 66 56 57 45 46
78 69 62 66 64 62 59 54 45 43 44 37 25 25 28 11 2 1 6 13 16 14 7 5 4 8 19 11 14 12 13 6 13 6 11 17 9 13 16 41 62 66 55 48 36 43 44 49 44 44 43 42 51 52
77 76 74 63 66 65 62 57 49 47 41 24 14 8 5 5 3 10 6 4 5 11 11 10 9 8 10 7 9 10 10 7 6 10 6 6 17 46 50 30 24 29 45 30 31 57 47 45 51 56 58 59 60 58
67 55 54 42 43 49 60 58 53 47 34 17 14 11 10 5 5 5 5 6 9 6 13 14 23 9 12 7 7 9 7 7 6 10 9 6 5 9 15 31 45 37 30 33 32 29 27 30 42 51 56 55 57 66
57 47 48 45 43 52 54 57 54 45 23 20 13 9 8 8 6 3 7 4 8 9 12 13 18 26 15 15 7 9 6 7 13 4 3 2 6 21 27 17 8 10 10 17 22 29 36 40 47 51 52 50 52 48
63 54 59 55 50 49 51 57 49 42 30 20 10 9 8 8 2 11 12 8 7 11 16 19 9 13 11 10 5 3 9 11 16 6 3 4 18 33 34 30 26 19 19 26 30 31 38 46 52 46 47 33 34 20
53 58 58 56 55 49 54 52 51 52 25 12 13 7 11 9 11 11 11 10 19 13 17 22 15 14 12 4 7 9 10 7 6 7 6 6 39 49 49 39 41 39 30 30 31 33 36 41 41 41 29 30 31 32
49 49 56 56 48 49 55 51 57 59 15 13 13 11 15 24 22 18 36 28 36 39 48 22 16 10 4 6 7 8 8 9 6 9 7 33 44 53 53 49 47 52 44 39 31 34 32 38 28 22 20 24 21 21
46 35 51 52 53 55 55 56 55 38 9 10 15 9 18 7 23 42 46 41 39 35 18 9 4 3 10 7 9 13 8 12 8 7 23 24 43 56 60 62 50 55 48 41 33 28 35 36 29 25 24 30 24 26
53 47 56 60 63 63 63 57 38 13 15 12 15 29 32 22 25 37 32 38 23 22 6 6 8 17 4 7 8 9 10 8 16 29 45 44 50 57 73 54 54 58 46 35 27 24 29 29 31 29 31 31 30 27
57 54 67 70 73 63 51 17 13 14 16 23 13 25 35 35 37 40 47 47 34 14 9 11 14 11 12 11 16 17 30 40 43 60 70 67 59 55 52 60 61 47 35 25 20 19 13 28 37 39 39 33 31 31
58 60 77 82 86 40 16 20 11 9 24 20 30 41 43 48 48 47 46 40 44 48 18 11 12 9 18 23 28 57 60 56 64 74 80 82 71 68 66 53 37 27 21 24 15 5 18 38 41 42 40 39 44 48
44 74 87 84 46 12 12 12 15 10 10 9 20 29 30 29 40 45 45 47 50 33 17 10 24 47 56 71 73 79 83 72 67 73 82 72 52 38 36 35 38 35 32 21 4 5 22 40 42 47 48 51 60 60
79 81 73 45 15 8 8 10 13 11 11 13 21 30 17 28 41 43 50 50 37 22 14 42 57 66 76 82 80 82 93 84 82 78 89 89 59 35 36 41 26 28 27 14 8 18 18 40 58 59 60 62 60 59
80 75 52 24 5 5 4 13 9 7 9 15 19 11 15 10 10 10 10 15 14 28 36 45 52 52 65 82 94 103 111 107 106 101 103 99 97 63 50 41 33 28 25 19 23 26 26 46 51 48 53 56 56 57
79 51 26 9 5 8 5 10 7 8 4 7 5 7 7 7 7 7 9 12 16 34 38 44 53 71 66 67 74 78 74 72 72 59 43 36 52 47 47 46 48 49 45 38 43 37 39 48 45 44 45 50 56 56
55 18 11 15 10 7 6 9 11 8 8 4 4 8 6 8 8 5 7 10 26 27 35 54 71 67 67 61 59 60 63 66 48 38 32 37 51 53 62 75 69 57 57 56 48 46 49 52 49 46 54 58 55 46
10 10 9 4 9 5 7 7 8 4 6 5 5 7 6 5 3 5 5 11 19 35 49 60 75 72 63 62 57 49 43 55 49 53 58 67 75 73 67 63 63 65 70 66 58 61 60 52 52 55 53 50 48 47
5 9 13 18 7 8 7 5 9 11 6 6 8 8 4 3 4 9 6 14 28 55 72 79 70 69 65 43 45 42 38 42 33 44 48 60 76 82 78 75 73 66 65 64 66 61 60 55 53 53 52 50 44 48
3 6 10 15 10 11 7 9 6 2 3 5 4 6 4 6 8 8 15 31 61 82 76 70 63 52 38 31 29 30 34 38 44 45 41 40 47 52 60 70 74 68 60 58 58 55 57 54 51 51 51 52 51 45
8 6 8 8 12 12 4 4 3 5 6 5 1 4 5 6 8 10 42 75 78 68 57 50 39 23 28 32 32 28 45 45 48 52 52 48 42 42 52 65 68 57 57 53 47 48 50 49 49 62 60 54 45 42
7 7 8 10 10 9 13 13 11 9 6 4 4 5 9 18 48 73 77 63 45 42 42 37 28 37 31 29 30 30 35 34 39 40 42 47 50 50 48 50 51 50 45 45 44 42 38 41 52 61 48 40 33 38
10 18 7 7 7 8 12 17 13 19 23 30 34 40 48 64 69 48 30 23 30 39 28 27 29 30 34 30 27 32 28 35 45 49 51 51 51 53 52 50 44 41 41 39 36 42 43 56 56 45 35 26 25 36
6 11 10 11 9 16 22 26 31 36 40 35 35 40 49 42 30 10 14 22 30 35 34 33 24 15 17 24 31 34 36 39 39 39 39 39 40 39 39 39 36 35 40 44 49 49 50 52 37 29 25 28 35 39
10 14 8 8 12 25 26 27 19 19 26 23 17 18 9 9 10 8 13 17 15 22 29 19 23 32 23 13 19 28 39 41 36 35 35 37 40 39 40 43 45 44 45 48 48 47 46 39 29 22 30 48 39 30
13 13 8 8 6 4 9 9 8 8 12 8 11 15 15 10 8 6 9 8 9 8 15 20 30 40 25 15 16 29 41 34 31 28 29 32 34 36 41 43 43 49 48 34 33 32 30 27 26 37 49 34 28 21
Wind_Direction_500mb
284 287 285 293 301 310 309 314 318 321 328 338 342 346 347 350 353 344 314 306 319 271 287 273 244 216 227 215 160 316 340 320 349 38 73 278 247 273 293 268 187 152 120 293 313 166 219 345 0 95 221 290 319 339
279 282 294 280 284 294 300 307 314 317 319 326 334 336 339 338 339 340 334 311 306 278 272 284 278 270 263 268 269 251 244 251 262 70 320 319 324 326 268 272 73 239 174 197 180 236 277 354 330 154 311 294 335 344
269 275 281 286 280 278 287 295 304 309 314 317 323 328 331 331 330 332 330 324 324 300 300 284 137 279 286 232 195 231 248 226 227 240 177 230 244 152 242 250 304 286 173 184 27 269 243 303 271 228 328 302 306 329
265 266 273 278 282 278 277 283 292 300 307 309 316 320 323 325 327 326 324 316 312 306 304 292 344 265 285 285 264 257 264 250 245 248 249 211 203 200 242 263 170 232 153 199 256 281 294 273 295 323 297 289 301 306
259 261 264 269 272 278 273 277 282 289 297 301 306 310 315 320 324 324 319 310 238 333 292 293 307 39 334 305 301 275 254 244 245 224 183 220 223 218 246 39 239 218 223 189 240 252 247 270 292 309 315 328 306 293
253 255 257 261 262 270 274 272 277 283 285 292 299 305 310 313 322 332 259 203 120 36 309 311 307 308 359 2 349 343 292 236 221 199 208 220 226 199 224 219 251 213 265 289 249 294 299 290 296 296 323 344 338 294
252 249 252 252 255 260 264 266 266 270 278 283 290 296 300 305 311 307 267 261 221 318 272 298 290 307 351 353 356 352 335 279 239 229 218 222 218 208 177 212 240 279 294 290 280 282 291 290 286 295 312 323 320 308
249 245 248 247 250 253 257 262 259 261 268 274 284 289 295 299 304 304 154 208 239 254 251 268 276 316 357 352 333 324 292 268 232 230 201 195 212 209 240 224 241 256 261 266 272 275 280 296 291 280 293 302 296 282
241 241 247 246 247 247 252 256 254 253 259 263 270 286 296 284 229 231 296 282 251 234 262 233 251 275 326 313 295 292 277 296 268 234 215 189 189 219 210 213 232 239 243 258 270 282 281 296 295 298 308 301 312 296
242 239 242 246 251 244 245 249 245 246 246 240 257 250 232 150 228 305 294 249 211 203 229 241 235 263 288 302 291 302 276 251 280 247 226 214 231 227 227 233 277 246 236 263 282 290 299 301 303 305 302 301 305 309
248 236 245 240 248 247 240 242 241 236 224 205 203 204 187 220 268 232 233 211 193 245 222 236 225 238 256 200 241 258 293 275 272 260 182 234 251 5 6 242 238 254 271 279 272 285 298 302 299 299 296 294 302 304
236 217 227 240 250 259 234 233 231 221 195 183 173 180 191 201 198 204 217 196 198 232 209 205 237 228 258 242 190 267 260 296 260 295 222 332 320 339 347 350 249 213 234 267 292 321 314 304 293 291 286 291 302 300
233 229 224 235 247 253 227 225 220 199 165 156 191 177 174 180 179 214 203 218 219 211 216 216 233 229 230 241 221 291 251 240 289 253 154 174 289 327 333 338 336 315 288 281 305 322 317 297 282 274 274 282 295 271
231 235 238 235 243 230 218 213 198 167 151 168 168 213 204 205 227 202 203 196 214 218 270 273 252 220 223 185 220 239 241 285 276 328 325 260 321 321 326 324 337 334 320 303 300 325 311 294 281 263 267 274 263 242
233 234 236 237 224 209 207 200 176 164 147 173 187 221 221 227 238 244 238 249 255 272 285 280 268 223 231 254 217 269 246 247 235 205 210 272 313 317 317 311 318 327 316 308 306 315 299 290 267 238 249 253 226 227
225 214 216 217 198 192 182 165 167 160 172 208 228 241 237 244 250 248 252 261 272 291 306 251 262 216 235 210 209 226 240 228 218 207 244 272 296 297 301 301 296 314 304 298 297 301 289 285 224 208 216 218 223 222
204 192 191 185 178 169 164 161 153 178 205 223 241 231 243 266 257 258 263 269 279 300 221 214 216 223 268 233 232 214 216 224 220 287 289 286 265 280 277 278 284 300 294 285 286 284 287 243 194 201 204 206 209 204
188 186 177 170 160 151 155 151 159 200 237 238 236 245 236 244 257 264 263 269 270 241 219 223 240 192 226 229 240 250 272 284 294 298 290 285 280 282 273 271 286 290 278 267 266 300 260 194 191 191 199 196 181 167
186 176 168 163 156 136 139 176 202 239 237 246 255 260 266 267 266 267 268 272 280 283 266 232 244 221 238 249 265 273 274 274 280 282 279 278 277 277 272 276 280 271 265 271 300 146 152 187 194 195 196 182 167 162
163 161 160 154 135 117 139 158 193 242 250 244 256 262 250 249 272 275 272 269 271 270 227 227 250 259 267 274 276 277 280 281 282 283 283 284 281 280 270 270 278 281 271 263 241 136 162 174 186 189 186 170 160 157
147 152 145 142 110 117 141 166 202 235 265 249 265 277 267 266 265 265 264 266 253 239 251 252 263 267 271 275 280 281 282 283 279 277 277 284 281 262 263 282 271 255 246 224 159 151 171 164 158 161 155 154 154 156
148 152 154 146 114 170 212 200 233 279 253 262 283 230 262 271 262 246 241 216 234 250 255 267 276 292 296 292 288 286 286 285 280 274 271 267 266 259 254 250 249 208 179 173 161 171 164 156 149 149 152 149 149 147
148 148 144 174 179 195 244 193 224 226 227 259 268 265 249 256 249 285 258 236 253 274 279 278 296 307 307 307 303 309 310 297 286 286 290 260 236 221 213 204 195 173 166 167 172 165 159 153 151 150 146 143 143 140
145 159 169 178 184 215 215 222 220 241 237 249 257 272 250 244 287 244 255 263 265 283 290 303 313 321 321 319 322 335 357 5 30 63 107 133 133 150 170 171 165 165 162 152 155 153 151 150 150 148 146 146 148 147
168 169 164 160 203 223 241 217 207 210 247 227 251 272 272 278 298 264 242 260 276 311 323 329 333 327 320 333 355 5 21 22 44 71 88 111 119 123 131 139 154 159 157 152 154 150 148 151 150 148 149 148 146 141
116 182 169 188 209 196 233 227 200 203 202 240 246 269 295 302 279 254 247 278 311 327 329 328 322 324 341 2 3 9 23 36 69 90 112 125 133 138 141 144 147 153 154 152 153 152 150 151 152 155 150 148 144 141
154 219 211 223 239 261 269 272 287 93 244 251 273 314 322 273 260 257 285 320 324 326 329 334 341 346 6 21 31 35 38 66 83 93 99 108 122 135 143 143 142 146 153 160 155 149 149 152 152 150 148 147 146 144
241 229 191 202 224 240 268 309 308 232 229 246 282 274 263 242 263 286 317 318 322 323 334 346 18 54 73 59 43 70 98 100 95 102 104 106 114 126 134 139 142 147 154 151 148 148 149 146 141 147 145 146 148 149
222 228 230 248 235 222 216 198 223 241 240 208 173 250 256 263 289 301 312 319 323 337 348 25 90 109 100 75 77 98 108 114 129 125 116 114 121 127 131 135 136 138 139 139 134 133 143 146 152 152 155 152 156 162
234 215 231 259 204 226 234 226 245 260 279 285 275 270 277 289 304 313 315 338 3 17 47 84 109 107 101 90 83 79 121 127 122 121 123 126 124 130 135 134 138 145 152 152 151 147 141 148 154 156 162 170 178 175
235 186 207 245 264 255 273 284 283 288 287 279 272 265 275 297 313 356 7 12 22 49 91 87 120 97 111 111 88 102 99 111 116 120 123 127 130 134 139 141 143 145 145 144 147 150 150 157 159 169 174 175 167 168
224 211 222 258 267 267 285 287 282 274 276 262 259 242 251 254 269 317 17 17 28 63 71 95 169 167 154 128 98 106 118 115 118 117 121 129 130 128 132 131 134 135 133 132 139 147 158 173 190 191 171 162 166 171
230 243 249 278 292 284 239 229 251 251 231 242 233 212 212 223 266 320 352 21 33 73 78 100 134 146 128 132 121 129 131 128 127 119 116 122 124 131 136 134 133 136 135 133 138 143 143 147 153 168 167 172 169 175
Wind_Speed_850mb
34 35 33 30 33 31 27 26 26 25 25 27 30 31 31 27 22 18 15 21 17 12 45 29 13 16 13 6 5 19 20 6 8 8 1 5 3 5 5 4 3 7 2 5 2 5 4 30 11 14 13 26 26 43
41 36 33 30 32 33 28 28 28 27 26 27 30 30 32 32 29 22 14 22 28 25 36 62 68 68 70 66 41 13 8 3 7 4 2 3 5 6 4 6 1 2 9 7 9 8 6 15 4 14 1 26 30 38
46 41 42 35 37 33 32 30 30 29 28 28 31 29 31 34 34 31 27 28 33 20 39 14 2 2 4 17 15 12 10 12 12 11 8 5 8 5 5 8 2 4 7 5 7 9 13 34 12 15 10 27 30 29
53 47 46 38 36 34 33 32 31 29 29 29 30 30 31 33 34 34 31 30 19 13 11 14 6 11 48 51 46 62 69 41 24 11 4 5 5 10 6 5 5 8 11 6 9 16 27 12 19 17 22 30 30 31
59 54 51 39 36 39 39 36 33 32 31 31 31 32 33 33 31 29 26 11 3 9 9 36 67 6 27 26 25 34 40 47 49 10 7 8 11 3 4 1 9 18 13 7 11 17 17 26 27 34 44 28 31 26
66 61 55 50 42 40 41 40 37 34 33 32 34 36 34 34 30 23 5 2 2 13 9 8 32 32 19 20 22 18 21 45 40 20 15 19 37 17 7 7 14 13 6 19 14 29 36 46 50 54 30 31 28 20
71 69 64 57 52 45 43 42 41 40 38 34 36 36 35 34 28 13 10 4 10 16 8 13 18 12 34 20 29 20 37 16 34 25 21 32 25 32 8 12 13 31 50 70 62 45 56 68 49 55 53 49 35 22
69 69 69 63 58 55 51 48 45 43 42 37 35 32 33 31 30 11 2 4 15 12 9 4 10 22 27 17 17 24 16 17 17 20 11 12 13 15 16 17 53 62 65 71 73 71 68 51 53 66 56 57 45 46
78 69 62 66 64 62 59 54 45 43 44 37 25 25 28 11 2 1 6 13 16 14 7 5 4 8 19 11 14 12 13 6 13 6 11 17 9 13 16 41 62 66 55 48 36 43 44 49 44 44 43 42 51 52
77 76 74 63 66 65 62 57 49 47 41 24 14 8 5 5 3 10 6 4 5 11 11 10 9 8 10 7 9 10 10 7 6 10 6 6 17 46 50 30 24 29 45 30 31 57 47 45 51 56 58 59 60 58
67 55 54 42 43 49 60 58 53 47 34 17 14 11 10 5 5 5 5 6 9 6 13 14 23 9 12 7 7 9 7 7 6 10 9 6 5 9 15 31 45 37 30 33 32 29 27 30 42 51 56 55 57 66
57 47 48 45 43 52 54 57 54 45 23 20 13 9 8 8 6 3 7 4 8 9 12 13 18 26 15 15 7 9 6 7 13 4 3 2 6 21 27 17 8 10 10 17 22 29 36 40 47 51 52 50 52 48
63 54 59 55 50 49 51 57 49 42 30 20 10 9 8 8 2 11 12 8 7 11 16 19 9 13 11 10 5 3 9 11 16 6 3 4 18 33 34 30 26 19 19 26 30 31 38 46 52 46 47 33 34 20
53 58 58 56 55 49 54 52 51 52 25 12 13 7 11 9 11 11 11 10 19 13 17 22 15 14 12 4 7 9 10 7 6 7 6 6 39 49 49 39 41 39 30 30 31 33 36 41 41 41 29 30 31 32
49 49 56 56 48 49 55 51 57 59 15 13 13 11 15 24 22 18 36 28 36 39 48 22 16 10 4 6 7 8 8 9 6 9 7 33 44 53 53 49 47 52 44 39 31 34 32 38 28 22 20 24 21 21
46 35 51 52 53 55 55 56 55 38 9 10 15 9 18 7 23 42 46 41 39 35 18 9 4 3 10 7 9 13 8 12 8 7 23 24 43 56 60 62 50 55 48 41 33 28 35 36 29 25 24 30 24 26
53 47 56 60 63 63 63 57 38 13 15 12 15 29 32 22 25 37 32 38 23 22 6 6 8 17 4 7 8 9 10 8 16 29 45 44 50 57 73 54 54 58 46 35 27 24 29 29 31 29 31 31 30 27
57 54 67 70 73 63 51 17 13 14 16 23 13 25 35 35 37 40 47 47 34 14 9 11 14 11 12 11 16 17 30 40 43 60 70 67 59 55 52 60 61 47 35 25 20 19 13 28 37 39 39 33 31 31
58 60 77 82 86 40 16 20 11 9 24 20 30 41 43 48 48 47 46 40 44 48 18 11 12 9 18 23 28 57 60 56 64 74 80 82 71 68 66 53 37 27 21 24 15 5 18 38 41 42 40 39 44 48
44 74 87 84 46 12 12 12 15 10 10 9 20 29 30 29 40 45 45 47 50 33 17 10 24 47 56 71 73 79 83 72 67 73 82 72 52 38 36 35 38 35 32 21 4 5 22 40 42 47 48 51 60 60
79 81 73 45 15 8 8 10 13 11 11 13 21 30 17 28 41 43 50 50 37 22 14 42 57 66 76 82 80 82 93 84 82 78 89 89 59 35 36 41 26 28 27 14 8 18 18 40 58 59 60 62 60 59
80 75 52 24 5 5 4 13 9 7 9 15 19 11 15 10 10 10 10 15 14 28 36 45 52 52 65 82 94 103 111 107 106 101 103 99 97 63 50 41 33 28 25 19 23 26 26 46 51 48 53 56 56 57
79 51 26 9 5 8 5 10 7 8 4 7 5 7 7 7 7 7 9 12 16 34 38 44 53 71 66 67 74 78 74 72 72 59 43 36 52 47 47 46 48 49 45 38 43 37 39 48 45 44 45 50 56 56
55 18 11 15 10 7 6 9 11 8 8 4 4 8 6 8 8 5 7 10 26 27 35 54 71 67 67 61 59 60 63 66 48 38 32 37 51 53 62 75 69 57 57 56 48 46 49 52 49 46 54 58 55 46
10 10 9 4 9 5 7 7 8 4 6 5 5 7 6 5 3 5 5 11 19 35 49 60 75 72 63 62 57 49 43 55 49 53 58 67 75 73 67 63 63 65 70 66 58 61 60 52 52 55 53 50 48 47
5 9 13 18 7 8 7 5 9 11 6 6 8 8 4 3 4 9 6 14 28 55 72 79 70 69 65 43 45 42 38 42 33 44 48 60 76 82 78 75 73 66 65 64 66 61 60 55 53 53 52 50 44 48
3 6 10 15 10 11 7 9 6 2 3 5 4 6 4 6 8 8 15 31 61 82 76 70 63 52 38 31 29 30 34 38 44 45 41 40 47 52 60 70 74 68 60 58 58 55 57 54 51 51 51 52 51 45
8 6 8 8 12 12 4 4 3 5 6 5 1 4 5 6 8 10 42 75 78 68 57 50 39 23 28 32 32 28 45 45 48 52 52 48 42 42 52 65 68 57 57 53 47 48 50 49 49 62 60 54 45 42
7 7 8 10 10 9 13 13 11 9 6 4 4 5 9 18 48 73 77 63 45 42 42 37 28 37 31 29 30 30 35 34 39 40 42 47 50 50 48 50 51 50 45 45 44 42 38 41 52 61 48 40 33 38
10 18 7 7 7 8 12 17 13 19 23 30 34 40 48 64 69 48 30 23 30 39 28 27 29 30 34 30 27 32 28 35 45 49 51 51 51 53 52 50 44 41 41 39 36 42 43 56 56 45 35 26 25 36
6 11 10 11 9 16 22 26 31 36 40 35 35 40 49 42 30 10 14 22 30 35 34 33 24 15 17 24 31 34 36 39 39 39 39 39 40 39 39 39 36 35 40 44 49 49 50 52 37 29 25 28 35 39
10 14 8 8 12 25 26 27 19 19 26 23 17 18 9 9 10 8 13 17 15 22 29 19 23 32 23 13 19 28 39 41 36 35 35 37 40 39 40 43 45 44 45 48 48 47 46 39 29 22 30 48 39 30
13 13 8 8 6 4 9 9 8 8 12 8 11 15 15 10 8 6 9 8 9 8 15 20 30 40 25 15 16 29 41 34 31 28 29 32 34 36 41 43 43 49 48 34 33 32 30 27 26 37 49 34 28 21
Wind_Direction_850mb
284 287 285 293 301 310 309 314 318 321 328 338 342 346 347 350 353 344 314 306 319 271 287 273 244 216 227 215 160 316 340 320 349 38 73 278 247 273 293 268 187 152 120 293 313 166 219 345 0 95 221 290 319 339
279 282 294 280 284 294 300 307 314 317 319 326 334 336 339 338 339 340 334 311 306 278 272 284 278 270 263 268 269 251 244 251 262 70 320 319 324 326 268 272 73 239 174 197 180 236 277 354 330 154 311 294 335 344
269 275 281 286 280 278 287 295 304 309 314 317 323 328 331 331 330 332 330 324 324 300 300 284 137 279 286 232 195 231 248 226 227 240 177 230 244 152 242 250 304 286 173 184 27 269 243 303 271 228 328 302 306 329
265 266 273 278 282 278 277 283 292 300 307 309 316 320 323 325 327 326 324 316 312 306 304 292 344 265 285 285 264 257 264 250 245 248 249 211 203 200 242 263 170 232 153 199 256 281 294 273 295 323 297 289 301 306
259 261 264 269 272 278 273 277 282 289 297 301 306 310 315 320 324 324 319 310 238 333 292 293 307 39 334 305 301 275 254 244 245 224 183 220 223 218 246 39 239 218 223 189 240 252 247 270 292 309 315 328 306 293
253 255 257 261 262 270 274 272 277 283 285 292 299 305 310 313 322 332 259 203 120 36 309 311 307 308 359 2 349 343 292 236 221 199 208 220 226 199 224 219 251 213 265 289 249 294 299 290 296 296 323 344 338 294
252 249 252 252 255 260 264 266 266 270 278 283 290 296 300 305 311 307 267 261 221 318 272 298 290 307 351 353 356 352 335 279 239 229 218 222 218 208 177 212 240 279 294 290 280 282 291 290 286 295 312 323 320 308
249 245 248 247 250 253 257 262 259 261 268 274 284 289 295 299 304 304 154 208 239 254 251 268 276 316 357 352 333 324 292 268 232 230 201 195 212 209 240 224 241 256 261 266 272 275 280 296 291 280 293 302 296 282
241 241 247 246 247 247 252 256 254 253 259 263 270 286 296 284 229 231 296 282 251 234 262 233 251 275 326 313 295 292 277 296 268 234 215 189 189 219 210 213 232 239 243 258 270 282 281 296 295 298 308 301 312 296
242 239 242 246 251 244 245 249 245 246 246 240 257 250 232 150 228 305 294 249 211 203 229 241 235 263 288 302 291 302 276 251 280 247 226 214 231 227 227 233 277 246 236 263 282 290 299 301 303 305 302 301 305 309
248 236 245 240 248 247 240 242 241 236 224 205 203 204 187 220 268 232 233 211 193 245 222 236 225 238 256 200 241 258 293 275 272 260 182 234 251 5 6 242 238 254 271 279 272 285 298 302 299 299 296 294 302 304
236 217 227 240 250 259 234 233 231 221 195 183 173 180 191 201 198 204 217 196 198 232 209 205 237 228 258 242 190 267 260 296 260 295 222 332 320 339 347 350 249 213 234 267 292 321 314 304 293 291 286 291 302 300
233 229 224 235 247 253 227 225 220 199 165 156 191 177 174 180 179 214 203 218 219 211 216 216 233 229 230 241 221 291 251 240 289 253 154 174 289 327 333 338 336 315 288 281 305 322 317 297 282 274 274 282 295 271
231 235 238 235 243 230 218 213 198 167 151 168 168 213 204 205 227 202 203 196 214 218 270 273 252 220 223 185 220 239 241 285 276 328 325 260 321 321 326 324 337 334 320 303 300 325 311 294 281 263 267 274 263 242
233 234 236 237 224 209 207 200 176 164 147 173 187 221 221 227 238 244 238 249 255 272 285 280 268 223 231 254 217 269 246 247 235 205 210 272 313 317 317 311 318 327 316 308 306 315 299 290 267 238 249 253 226 227
225 214 216 217 198 192 182 165 167 160 172 208 228 241 237 244 250 248 252 261 272 291 306 251 262 216 235 210 209 226 240 228 218 207 244 272 296 297 301 301 296 314 304 298 297 301 289 285 224 208 216 218 223 222
204 192 191 185 178 169 164 161 153 178 205 223 241 231 243 266 257 258 263 269 279 300 221 214 216 223 268 233 232 214 216 224 220 287 289 286 265 280 277 278 284 300 294 285 286 284 287 243 194 201 204 206 209 204
188 186 177 170 160 151 155 151 159 200 237 238 236 245 236 244 257 264 263 269 270 241 219 223 240 192 226 229 240 250 272 284 294 298 290 285 280 282 273 271 286 290 278 267 266 300 260 194 191 191 199 196 181 167
186 176 168 163 156 136 139 176 202 239 237 246 255 260 266 267 266 267 268 272 280 283 266 232 244 221 238 249 265 273 274 274 280 282 279 278 277 277 272 276 280 271 265 271 300 146 152 187 194 195 196 182 167 162
163 161 160 154 135 117 139 158 193 242 250 244 256 262 250 249 272 275 272 269 271 270 227 227 250 259 267 274 276 277 280 281 282 283 283 284 281 280 270 270 278 281 271 263 241 136 162 174 186 189 186 170 160 157
147 152 145 142 110 117 141 166 202 235 265 249 265 277 267 266 265 265 264 266 253 239 251 252 263 267 271 275 280 281 282 283 279 277 277 284 281 262 263 282 271 255 246 224 159 151 171 164 158 161 155 154 154 156
148 152 154 146 114 170 212 200 233 279 253 262 283 230 262 271 262 246 241 216 234 250 255 267 276 292 296 292 288 286 286 285 280 274 271 267 266 259 254 250 249 208 179 173 161 171 164 156 149 149 152 149 149 147
148 148 144 174 179 195 244 193 224 226 227 259 268 265 249 256 249 285 258 236 253 274 279 278 296 307 307 307 303 309 310 297 286 286 290 260 236 221 213 204 195 173 166 167 172 165 159 153 151 150 146 143 143 140
145 159 169 178 184 215 215 222 220 241 237 249 257 272 250 244 287 244 255 263 265 283 290 303 313 321 321 319 322 335 357 5 30 63 107 133 133 150 170 171 165 165 162 152 155 153 151 150 150 148 146 146 148 147
168 169 164 160 203 223 241 217 207 210 247 227 251 272 272 278 298 264 242 260 276 311 323 329 333 327 320 333 355 5 21 22 44 71 88 111 119 123 131 139 154 159 157 152 154 150 148 151 150 148 149 148 146 141
116 182 169 188 209 196 233 227 200 203 202 240 246 269 295 302 279 254 247 278 311 327 329 328 322 324 341 2 3 9 23 36 69 90 112 125 133 138 141 144 147 153 154 152 153 152 150 151 152 155 150 148 144 141
154 219 211 223 239 261 269 272 287 93 244 251 273 314 322 273 260 257 285 320 324 326 329 334 341 346 6 21 31 35 38 66 83 93 99 108 122 135 143 143 142 146 153 160 155 149 149 152 152 150 148 147 146 144
241 229 191 202 224 240 268 309 308 232 229 246 282 274 263 242 263 286 317 318 322 323 334 346 18 54 73 59 43 70 98 100 95 102 104 106 114 126 134 139 142 147 154 151 148 148 149 146 141 147 145 146 148 149
222 228 230 248 235 222 216 198 223 241 240 208 173 250 256 263 289 301 312 319 323 337 348 25 90 109 100 75 77 98 108 114 129 125 116 114 121 127 131 135 136 138 139 139 134 133 143 146 152 152 155 152 156 162
234 215 231 259 204 226 234 226 245 260 279 285 275 270 277 289 304 313 315 338 3 17 47 84 109 107 101 90 83 79 121 127 122 121 123 126 124 130 135 134 138 145 152 152 151 147 141 148 154 156 162 170 178 175
235 186 207 245 264 255 273 284 283 288 287 279 272 265 275 297 313 356 7 12 22 49 91 87 120 97 111 111 88 102 99 111 116 120 123 127 130 134 139 141 143 145 145 144 147 150 150 157 159 169 174 175 167 168
224 211 222 258 267 267 285 287 282 274 276 262 259 242 251 254 269 317 17 17 28 63 71 95 169 167 154 128 98 106 118 115 118 117 121 129 130 128 132 131 134 135 133 132 139 147 158 173 190 191 171 162 166 171
230 243 249 278 292 284 239 229 251 251 231 242 233 212 212 223 266 320 352 21 33 73 78 100 134 146 128 132 121 129 131 128 127 119 116 122 124 131 136 134 133 136 135 133 138 143 143 147 153 168 167 172 169 175